RAM947B GMMN-LIPE

Flight info

Callsign RAM947B
Flight time 2h 35m
Altitude 34000
Route SADIC UR975 FES UG850 BERUM DCT GONZA DCT AMR DCT DOSEK DCT RESTU DCT NARGO DCT BEGOX DCT LASPO DCT SOPET DCT DIKUT DCT TORDU DCT LOTOS DCT EBROX DCT PEXOT DCT RODRA DCT BCN DCT SALON DCT AGENA DCT BODEQ DCT LUMAS DCT NIBIK DCT NETUP DCT STP DCT RAPED DCT PIGOS DCT EKSID DCT NOSTA DCT EGHIN DCT ANAKI DCT IXITO DCT KALMO Y239 NIGSO
Aircraft B738/M-SDE2E3FGHIRWXY/LB1

Departure

Time 2026-05-06 14:14
Airport Mohammed V International Airport (GMMN)

Arrival

Time 2026-05-06 16:49
Airport Bologna Guglielmo Marconi Airport (LIPE)
Time Latitude Longitude Altitude Speed Heading
2026-05-06 13:54 33.37159 -7.58365 652 ft 0 kts 161°
2026-05-06 14:06 33.37154 -7.58363 654 ft 4 kts 161°
2026-05-06 14:06 33.37132 -7.58342 653 ft 6 kts 104°
2026-05-06 14:07 33.37085 -7.58261 652 ft 19 kts 155°
2026-05-06 14:07 33.36947 -7.58254 653 ft 14 kts 230°
2026-05-06 14:07 33.36913 -7.58357 653 ft 13 kts 250°
2026-05-06 14:07 33.36877 -7.58455 653 ft 13 kts 213°
2026-05-06 14:08 33.36804 -7.58446 654 ft 10 kts 164°
2026-05-06 14:08 33.36738 -7.58424 654 ft 10 kts 164°
2026-05-06 14:08 33.36674 -7.58401 656 ft 9 kts 164°
2026-05-06 14:08 33.36611 -7.58380 656 ft 9 kts 164°
2026-05-06 14:09 33.36537 -7.58354 656 ft 15 kts 164°
2026-05-06 14:09 33.36400 -7.58307 657 ft 25 kts 164°
2026-05-06 14:09 33.36202 -7.58239 657 ft 34 kts 164°
2026-05-06 14:09 33.35967 -7.58158 659 ft 35 kts 164°
2026-05-06 14:10 33.35745 -7.58082 660 ft 27 kts 164°
2026-05-06 14:10 33.35571 -7.58023 662 ft 25 kts 164°
2026-05-06 14:10 33.35407 -7.57967 663 ft 24 kts 164°
2026-05-06 14:10 33.35268 -7.57977 663 ft 20 kts 224°
2026-05-06 14:11 33.35241 -7.58028 663 ft 4 kts 253°
2026-05-06 14:11 33.35226 -7.58092 662 ft 14 kts 255°
2026-05-06 14:11 33.35192 -7.58243 664 ft 24 kts 255°
2026-05-06 14:11 33.35139 -7.58468 662 ft 33 kts 253°
2026-05-06 14:12 33.35147 -7.58665 666 ft 18 kts 338°
2026-05-06 14:12 33.35155 -7.58667 666 ft 0 kts 343°
2026-05-06 14:13 33.35328 -7.58727 664 ft 63 kts 344°
2026-05-06 14:13 33.35991 -7.58955 659 ft 131 kts 344°
2026-05-06 14:14 33.37002 -7.59319 926 ft 164 kts 341°
2026-05-06 14:14 33.38081 -7.59767 1895 ft 165 kts 339°
2026-05-06 14:14 33.39138 -7.60244 2920 ft 160 kts 340°
2026-05-06 14:14 33.40221 -7.60591 3683 ft 168 kts 356°
2026-05-06 14:15 33.41487 -7.60369 3987 ft 201 kts 16°
2026-05-06 14:15 33.42873 -7.59695 4229 ft 229 kts 24°
2026-05-06 14:15 33.44321 -7.58731 4684 ft 245 kts 32°
2026-05-06 14:15 33.45708 -7.57460 5237 ft 256 kts 42°
2026-05-06 14:16 33.46925 -7.55853 5907 ft 265 kts 50°
2026-05-06 14:16 33.48083 -7.54145 6720 ft 267 kts 50°
2026-05-06 14:16 33.49249 -7.52415 7554 ft 270 kts 50°
2026-05-06 14:16 33.50459 -7.50647 8296 ft 275 kts 50°
2026-05-06 14:17 33.51677 -7.48893 9235 ft 275 kts 50°
2026-05-06 14:17 33.52919 -7.47118 10053 ft 280 kts 50°
2026-05-06 14:17 33.54188 -7.45311 10735 ft 285 kts 49°
2026-05-06 14:17 33.55467 -7.43488 11529 ft 287 kts 51°
2026-05-06 14:18 33.56507 -7.41427 12192 ft 294 kts 67°
2026-05-06 14:18 33.57152 -7.38996 12464 ft 317 kts 78°
2026-05-06 14:18 33.57595 -7.36347 12662 ft 340 kts 81°
2026-05-06 14:18 33.58019 -7.33456 12919 ft 361 kts 81°
2026-05-06 14:19 33.58465 -7.30454 13532 ft 369 kts 80°
2026-05-06 14:19 33.58939 -7.27406 14221 ft 373 kts 80°
2026-05-06 14:19 33.59435 -7.24329 14890 ft 378 kts 79°
2026-05-06 14:19 33.59948 -7.21209 15524 ft 385 kts 79°
2026-05-06 14:20 33.60476 -7.18030 16160 ft 391 kts 79°
2026-05-06 14:20 33.61010 -7.14815 16793 ft 395 kts 79°
2026-05-06 14:20 33.61550 -7.11560 17441 ft 400 kts 79°
2026-05-06 14:20 33.62060 -7.08255 18033 ft 406 kts 81°
2026-05-06 14:21 33.62538 -7.04893 18574 ft 411 kts 82°
2026-05-06 14:21 33.63009 -7.01497 19167 ft 413 kts 82°
2026-05-06 14:21 33.63480 -6.98125 19734 ft 417 kts 81°
2026-05-06 14:21 33.63967 -6.94673 20267 ft 421 kts 82°
2026-05-06 14:22 33.64461 -6.91193 20813 ft 425 kts 81°
2026-05-06 14:22 33.64967 -6.87684 21346 ft 428 kts 81°
2026-05-06 14:22 33.65509 -6.84152 21881 ft 432 kts 81°
2026-05-06 14:22 33.66075 -6.80571 22370 ft 436 kts 81°
2026-05-06 14:23 33.66645 -6.76981 22858 ft 440 kts 81°
2026-05-06 14:23 33.67219 -6.73355 23380 ft 444 kts 81°
2026-05-06 14:23 33.67786 -6.69748 23834 ft 446 kts 81°
2026-05-06 14:23 33.68360 -6.66068 24241 ft 450 kts 81°
2026-05-06 14:24 33.68938 -6.62348 24635 ft 454 kts 81°
2026-05-06 14:24 33.69517 -6.58603 25035 ft 457 kts 81°
2026-05-06 14:24 33.70098 -6.54836 25436 ft 460 kts 81°
2026-05-06 14:24 33.70682 -6.51045 25847 ft 463 kts 81°
2026-05-06 14:25 33.71270 -6.47224 26251 ft 466 kts 81°
2026-05-06 14:25 33.71858 -6.43391 26612 ft 469 kts 81°
2026-05-06 14:25 33.72453 -6.39507 26920 ft 474 kts 81°
2026-05-06 14:25 33.73043 -6.35646 27285 ft 477 kts 81°
2026-05-06 14:26 33.73642 -6.31719 27660 ft 479 kts 81°
2026-05-06 14:26 33.74243 -6.27768 28038 ft 481 kts 81°
2026-05-06 14:26 33.74845 -6.23801 28394 ft 484 kts 81°
2026-05-06 14:26 33.75449 -6.19810 28724 ft 487 kts 81°
2026-05-06 14:27 33.76057 -6.15788 29047 ft 490 kts 81°
2026-05-06 14:27 33.76666 -6.11746 29366 ft 493 kts 81°
2026-05-06 14:27 33.77278 -6.07678 29693 ft 495 kts 81°
2026-05-06 14:27 33.77893 -6.03580 29994 ft 498 kts 81°
2026-05-06 14:28 33.78511 -5.99459 30236 ft 501 kts 81°
2026-05-06 14:28 33.79128 -5.95328 30515 ft 503 kts 81°
2026-05-06 14:28 33.79746 -5.91180 30789 ft 505 kts 82°
2026-05-06 14:28 33.80357 -5.87074 31087 ft 506 kts 82°
2026-05-06 14:29 33.80976 -5.82904 31405 ft 506 kts 82°
2026-05-06 14:29 33.81595 -5.78726 31681 ft 508 kts 82°
2026-05-06 14:29 33.82215 -5.74528 31936 ft 510 kts 82°
2026-05-06 14:29 33.82832 -5.70316 32214 ft 511 kts 82°
2026-05-06 14:30 33.83447 -5.66099 32502 ft 512 kts 82°
2026-05-06 14:30 33.84063 -5.61866 32761 ft 514 kts 83°
2026-05-06 14:30 33.84671 -5.57672 32997 ft 516 kts 83°
2026-05-06 14:30 33.85287 -5.53419 33294 ft 516 kts 83°
2026-05-06 14:31 33.85903 -5.49154 33581 ft 517 kts 83°
2026-05-06 14:31 33.86519 -5.44884 33815 ft 519 kts 83°
2026-05-06 14:31 33.87135 -5.40597 33938 ft 520 kts 83°
2026-05-06 14:31 33.87752 -5.36295 33927 ft 522 kts 83°
2026-05-06 14:32 33.88978 -5.27722 33944 ft 521 kts 84°
2026-05-06 14:32 33.90202 -5.19116 33957 ft 521 kts 84°
2026-05-06 14:33 33.91419 -5.10519 33969 ft 520 kts 84°
2026-05-06 14:33 33.92182 -5.06257 33948 ft 524 kts 73°
2026-05-06 14:33 33.93674 -5.02255 33976 ft 524 kts 58°
2026-05-06 14:34 33.95798 -4.98699 33965 ft 521 kts 44°
2026-05-06 14:34 33.98471 -4.95804 33982 ft 514 kts 32°
2026-05-06 14:34 34.04245 -4.90703 33966 ft 514 kts 31°
2026-05-06 14:35 34.10023 -4.85586 33971 ft 516 kts 32°
2026-05-06 14:35 34.15735 -4.80392 33946 ft 517 kts 32°
2026-05-06 14:36 34.21460 -4.75130 33956 ft 516 kts 32°
2026-05-06 14:36 34.27169 -4.69879 33942 ft 514 kts 33°
2026-05-06 14:37 34.32849 -4.64654 33941 ft 511 kts 33°
2026-05-06 14:37 34.38503 -4.59445 33947 ft 508 kts 33°
2026-05-06 14:38 34.44049 -4.54301 33937 ft 502 kts 33°
2026-05-06 14:38 34.49581 -4.49137 33956 ft 501 kts 34°
2026-05-06 14:39 34.55113 -4.43964 33957 ft 500 kts 34°
2026-05-06 14:39 34.60584 -4.38843 33945 ft 499 kts 34°
2026-05-06 14:40 34.66092 -4.33678 33934 ft 499 kts 34°
2026-05-06 14:40 34.71577 -4.28526 33933 ft 498 kts 34°
2026-05-06 14:41 34.75857 -4.24501 33920 ft 497 kts 34°
2026-05-06 14:41 34.81220 -4.19450 33934 ft 496 kts 34°
2026-05-06 14:42 34.86647 -4.14328 33937 ft 496 kts 34°
2026-05-06 14:42 34.92099 -4.09174 33940 ft 495 kts 34°
2026-05-06 14:43 34.97538 -4.04024 33940 ft 493 kts 34°
2026-05-06 14:43 35.02949 -3.98891 33938 ft 492 kts 34°
2026-05-06 14:44 35.08348 -3.93761 33949 ft 491 kts 34°
2026-05-06 14:45 35.16429 -3.86064 33937 ft 491 kts 34°
2026-05-06 14:45 35.21785 -3.80995 33946 ft 489 kts 34°
2026-05-06 14:46 35.27216 -3.75984 33941 ft 488 kts 33°
2026-05-06 14:46 35.32643 -3.70983 33938 ft 488 kts 33°
2026-05-06 14:47 35.38050 -3.65971 33935 ft 487 kts 34°
2026-05-06 14:47 35.43450 -3.60948 33927 ft 486 kts 34°
2026-05-06 14:48 35.48808 -3.55954 33930 ft 486 kts 34°
2026-05-06 14:48 35.54200 -3.50920 33923 ft 486 kts 34°
2026-05-06 14:49 35.59588 -3.45882 33923 ft 486 kts 34°
2026-05-06 14:49 35.64058 -3.41695 33922 ft 486 kts 34°
2026-05-06 14:50 35.69442 -3.36644 33919 ft 486 kts 34°
2026-05-06 14:50 35.74831 -3.31580 33914 ft 486 kts 34°
2026-05-06 14:51 35.80185 -3.26539 33913 ft 487 kts 34°
2026-05-06 14:51 35.85555 -3.21462 33913 ft 487 kts 34°
2026-05-06 14:52 35.90908 -3.16317 33908 ft 487 kts 34°
2026-05-06 14:52 35.96252 -3.11161 33914 ft 487 kts 34°
2026-05-06 14:53 36.01568 -3.06031 33917 ft 488 kts 34°
2026-05-06 14:53 36.06913 -3.00867 33915 ft 488 kts 34°
2026-05-06 14:54 36.12264 -2.95690 33907 ft 488 kts 34°
2026-05-06 14:54 36.17625 -2.90494 33907 ft 488 kts 34°
2026-05-06 14:55 36.22944 -2.85327 33917 ft 489 kts 34°
2026-05-06 14:55 36.28289 -2.80116 33909 ft 489 kts 35°
2026-05-06 14:56 36.33634 -2.74891 33905 ft 489 kts 35°
2026-05-06 14:56 36.38982 -2.69656 33914 ft 489 kts 35°
2026-05-06 14:57 36.44329 -2.64412 33909 ft 489 kts 35°
2026-05-06 14:57 36.49671 -2.59164 33911 ft 490 kts 35°
2026-05-06 14:58 36.54985 -2.53933 33910 ft 490 kts 35°
2026-05-06 14:58 36.60332 -2.48662 33908 ft 490 kts 35°
2026-05-06 14:59 36.65669 -2.43389 33913 ft 490 kts 35°
2026-05-06 14:59 36.71010 -2.38103 33915 ft 490 kts 35°
2026-05-06 15:00 36.76344 -2.32813 33914 ft 490 kts 35°
2026-05-06 15:00 36.81678 -2.27517 33910 ft 490 kts 35°
2026-05-06 15:01 36.87390 -2.22991 33922 ft 484 kts 23°
2026-05-06 15:01 36.93338 -2.19158 33913 ft 484 kts 22°
2026-05-06 15:02 36.99330 -2.15277 33915 ft 485 kts 23°
2026-05-06 15:02 37.05308 -2.11320 33916 ft 486 kts 23°
2026-05-06 15:03 37.11292 -2.07328 33916 ft 487 kts 24°
2026-05-06 15:03 37.17243 -2.03354 33908 ft 487 kts 24°
2026-05-06 15:04 37.23231 -1.99352 33907 ft 488 kts 24°
2026-05-06 15:04 37.29254 -1.95408 33912 ft 487 kts 22°
2026-05-06 15:05 37.35310 -1.91568 33911 ft 488 kts 22°
2026-05-06 15:05 37.41377 -1.87713 33913 ft 489 kts 22°
2026-05-06 15:06 37.47444 -1.83829 33916 ft 490 kts 22°
2026-05-06 15:06 37.53523 -1.79921 33907 ft 491 kts 22°
2026-05-06 15:07 37.59569 -1.76027 33899 ft 491 kts 22°
2026-05-06 15:07 37.65655 -1.72100 33911 ft 490 kts 22°
2026-05-06 15:08 37.71734 -1.68171 33913 ft 491 kts 22°
2026-05-06 15:08 37.77815 -1.64235 33905 ft 491 kts 22°
2026-05-06 15:09 37.83902 -1.60286 33904 ft 491 kts 22°
2026-05-06 15:09 37.89984 -1.56333 33896 ft 491 kts 22°
2026-05-06 15:10 37.96041 -1.52345 33897 ft 491 kts 22°
2026-05-06 15:10 38.02046 -1.48330 33907 ft 491 kts 22°
2026-05-06 15:11 38.08101 -1.44275 33904 ft 491 kts 22°
2026-05-06 15:11 38.14148 -1.40226 33911 ft 491 kts 22°
2026-05-06 15:12 38.20154 -1.36202 33920 ft 490 kts 22°
2026-05-06 15:12 38.26233 -1.32119 33920 ft 491 kts 22°
2026-05-06 15:13 38.32285 -1.28048 33925 ft 492 kts 22°
2026-05-06 15:13 38.38301 -1.23993 33915 ft 493 kts 22°
2026-05-06 15:14 38.44366 -1.19896 33926 ft 493 kts 22°
2026-05-06 15:14 38.50439 -1.15786 33922 ft 493 kts 22°
2026-05-06 15:15 38.56496 -1.11679 33931 ft 493 kts 22°
2026-05-06 15:15 38.62552 -1.07565 33928 ft 492 kts 22°
2026-05-06 15:16 38.68604 -1.03445 33927 ft 492 kts 22°
2026-05-06 15:16 38.74618 -0.99344 33920 ft 492 kts 22°
2026-05-06 15:17 38.80654 -0.95222 33928 ft 491 kts 22°
2026-05-06 15:17 38.86698 -0.91087 33927 ft 491 kts 22°
2026-05-06 15:18 38.92726 -0.86953 33923 ft 490 kts 23°
2026-05-06 15:18 38.98745 -0.82818 33922 ft 490 kts 23°
2026-05-06 15:19 39.04751 -0.78684 33938 ft 490 kts 23°
2026-05-06 15:19 39.10393 -0.73748 33943 ft 497 kts 36°
2026-05-06 15:20 39.15679 -0.67973 33927 ft 498 kts 37°
2026-05-06 15:20 39.20967 -0.62228 33931 ft 497 kts 36°
2026-05-06 15:21 39.26296 -0.56541 33944 ft 497 kts 36°
2026-05-06 15:21 39.31683 -0.50940 33939 ft 496 kts 33°
2026-05-06 15:22 39.37232 -0.45621 33944 ft 496 kts 32°
2026-05-06 15:22 39.42760 -0.40347 33941 ft 497 kts 32°
2026-05-06 15:23 39.48311 -0.34969 33945 ft 498 kts 32°
2026-05-06 15:23 39.53852 -0.29554 33938 ft 498 kts 32°
2026-05-06 15:24 39.59382 -0.24136 33939 ft 498 kts 32°
2026-05-06 15:24 39.64872 -0.18752 33936 ft 497 kts 32°
2026-05-06 15:25 39.70395 -0.13325 33937 ft 497 kts 32°
2026-05-06 15:25 39.75902 -0.07903 33943 ft 496 kts 32°
2026-05-06 15:26 39.81396 -0.02483 33942 ft 495 kts 32°
2026-05-06 15:26 39.86517 0.03567 33956 ft 500 kts 44°
2026-05-06 15:27 39.91211 0.10263 33936 ft 500 kts 44°
2026-05-06 15:27 39.95926 0.16939 33942 ft 500 kts 44°
2026-05-06 15:28 40.00646 0.23524 33948 ft 499 kts 44°
2026-05-06 15:28 40.05392 0.30147 33952 ft 499 kts 43°
2026-05-06 15:29 40.10129 0.36770 33947 ft 499 kts 44°
2026-05-06 15:29 40.14842 0.43377 33947 ft 499 kts 44°
2026-05-06 15:30 40.19568 0.50018 33938 ft 499 kts 44°
2026-05-06 15:30 40.24299 0.56680 33931 ft 499 kts 44°
2026-05-06 15:31 40.29024 0.63347 33931 ft 499 kts 44°
2026-05-06 15:31 40.33724 0.69999 33932 ft 499 kts 44°
2026-05-06 15:32 40.40801 0.80042 33931 ft 499 kts 44°
2026-05-06 15:32 40.45519 0.86756 33931 ft 500 kts 44°
2026-05-06 15:33 40.50225 0.93470 33928 ft 500 kts 44°
2026-05-06 15:33 40.54911 1.00167 33929 ft 500 kts 44°
2026-05-06 15:34 40.59607 1.06908 33922 ft 500 kts 44°
2026-05-06 15:34 40.63506 1.12524 33925 ft 500 kts 44°
2026-05-06 15:35 40.68195 1.19289 33923 ft 499 kts 44°
2026-05-06 15:35 40.72874 1.26047 33918 ft 499 kts 44°
2026-05-06 15:36 40.77553 1.32807 33922 ft 499 kts 45°
2026-05-06 15:36 40.82205 1.39543 33919 ft 498 kts 45°
2026-05-06 15:37 40.86877 1.46325 33922 ft 498 kts 45°
2026-05-06 15:37 40.91524 1.53100 33918 ft 497 kts 45°
2026-05-06 15:38 40.96167 1.59892 33920 ft 497 kts 45°
2026-05-06 15:38 41.00774 1.66644 33917 ft 496 kts 45°
2026-05-06 15:39 41.05402 1.73439 33921 ft 496 kts 45°
2026-05-06 15:39 41.10030 1.80239 33926 ft 496 kts 45°
2026-05-06 15:40 41.14653 1.87044 33933 ft 496 kts 45°
2026-05-06 15:40 41.19274 1.93865 33938 ft 496 kts 45°
2026-05-06 15:41 41.23856 2.00643 33940 ft 496 kts 45°
2026-05-06 15:41 41.28381 2.07577 33931 ft 498 kts 53°
2026-05-06 15:42 41.31609 2.15724 33941 ft 499 kts 71°
2026-05-06 15:42 41.33315 2.24638 33941 ft 497 kts 79°
2026-05-06 15:43 41.34813 2.33630 33933 ft 497 kts 79°
2026-05-06 15:43 41.36350 2.42601 33931 ft 497 kts 79°
2026-05-06 15:44 41.37924 2.51574 33923 ft 497 kts 78°
2026-05-06 15:44 41.39500 2.60543 33924 ft 497 kts 79°
2026-05-06 15:45 41.41058 2.69464 33921 ft 497 kts 79°
2026-05-06 15:45 41.42618 2.78459 33923 ft 498 kts 79°
2026-05-06 15:46 41.44169 2.87451 33922 ft 498 kts 79°
2026-05-06 15:46 41.45713 2.96446 33923 ft 498 kts 79°
2026-05-06 15:47 41.47250 3.05445 33926 ft 498 kts 79°
2026-05-06 15:47 41.48781 3.14449 33929 ft 498 kts 79°
2026-05-06 15:48 41.50291 3.23407 33932 ft 498 kts 79°
2026-05-06 15:48 41.51788 3.32434 33934 ft 498 kts 80°
2026-05-06 15:49 41.53279 3.41473 33937 ft 498 kts 80°
2026-05-06 15:49 41.54767 3.50511 33939 ft 499 kts 80°
2026-05-06 15:50 41.56264 3.59566 33939 ft 499 kts 80°
2026-05-06 15:50 41.57759 3.68622 33942 ft 499 kts 80°
2026-05-06 15:51 41.59236 3.77628 33945 ft 499 kts 80°
2026-05-06 15:51 41.60715 3.86700 33948 ft 499 kts 80°
2026-05-06 15:52 41.62179 3.95791 33945 ft 499 kts 81°
2026-05-06 15:52 41.63629 4.04883 33945 ft 499 kts 81°
2026-05-06 15:53 41.65062 4.13907 33950 ft 499 kts 81°
2026-05-06 15:53 41.66496 4.22977 33949 ft 498 kts 81°
2026-05-06 15:54 41.67922 4.32041 33948 ft 498 kts 81°
2026-05-06 15:54 41.69342 4.41121 33950 ft 497 kts 81°
2026-05-06 15:55 41.70745 4.50140 33951 ft 497 kts 81°
2026-05-06 15:55 41.72150 4.59201 33952 ft 497 kts 80°
2026-05-06 15:56 41.73296 4.63578 33941 ft 501 kts 62°
2026-05-06 15:56 41.75272 4.67398 33960 ft 499 kts 46°
2026-05-06 15:56 41.77879 4.70426 33948 ft 494 kts 28°
2026-05-06 15:56 41.80857 4.72677 33978 ft 491 kts 24°
2026-05-06 15:57 41.86887 4.77022 33954 ft 492 kts 24°
2026-05-06 15:57 41.92884 4.81430 33945 ft 494 kts 25°
2026-05-06 15:58 41.98903 4.85954 33951 ft 496 kts 25°
2026-05-06 15:58 42.04925 4.90520 33948 ft 497 kts 26°
2026-05-06 15:59 42.10965 4.95109 33945 ft 498 kts 26°
2026-05-06 15:59 42.17008 4.99704 33944 ft 499 kts 26°
2026-05-06 16:00 42.23062 5.04315 33933 ft 500 kts 26°
2026-05-06 16:00 42.29073 5.08905 33939 ft 498 kts 26°
2026-05-06 16:01 42.35104 5.13520 33941 ft 497 kts 26°
2026-05-06 16:01 42.41116 5.18131 33934 ft 496 kts 26°
2026-05-06 16:02 42.47093 5.22724 33931 ft 496 kts 26°
2026-05-06 16:02 42.53105 5.27356 33931 ft 496 kts 26°
2026-05-06 16:03 42.59126 5.32004 33931 ft 497 kts 26°
2026-05-06 16:03 42.65106 5.36631 33930 ft 498 kts 26°
2026-05-06 16:04 42.70787 5.42085 33927 ft 503 kts 41°
2026-05-06 16:04 42.75921 5.48586 33921 ft 504 kts 42°
2026-05-06 16:05 42.81046 5.55130 33920 ft 505 kts 42°
2026-05-06 16:05 42.86220 5.61619 33919 ft 506 kts 41°
2026-05-06 16:06 42.91410 5.68102 33913 ft 506 kts 41°
2026-05-06 16:06 42.96594 5.74601 33919 ft 506 kts 41°
2026-05-06 16:07 43.01130 5.81908 33914 ft 505 kts 60°
2026-05-06 16:07 43.04036 5.90545 33918 ft 499 kts 74°
2026-05-06 16:08 43.06280 5.99461 33896 ft 499 kts 75°
2026-05-06 16:08 43.08554 6.08442 33896 ft 499 kts 74°
2026-05-06 16:09 43.10873 6.17399 33885 ft 500 kts 74°
2026-05-06 16:09 43.13206 6.26372 33892 ft 500 kts 74°
2026-05-06 16:10 43.15530 6.35357 33886 ft 500 kts 74°
2026-05-06 16:10 43.17836 6.44317 33876 ft 501 kts 74°
2026-05-06 16:11 43.20144 6.53321 33858 ft 501 kts 74°
2026-05-06 16:11 43.22860 6.62129 33869 ft 505 kts 61°
2026-05-06 16:12 43.26949 6.69999 33873 ft 507 kts 54°
2026-05-06 16:12 43.31192 6.77741 33850 ft 507 kts 54°
2026-05-06 16:13 43.35353 6.85583 33840 ft 507 kts 55°
2026-05-06 16:13 43.39458 6.93401 33836 ft 508 kts 55°
2026-05-06 16:14 43.43584 7.01282 33827 ft 508 kts 56°
2026-05-06 16:14 43.47711 7.09183 33834 ft 508 kts 56°
2026-05-06 16:15 43.51833 7.17097 33827 ft 508 kts 56°
2026-05-06 16:15 43.55956 7.25034 33829 ft 508 kts 56°
2026-05-06 16:16 43.60075 7.32984 33825 ft 508 kts 56°
2026-05-06 16:16 43.64161 7.40887 33827 ft 508 kts 56°
2026-05-06 16:17 43.68270 7.48846 33823 ft 508 kts 56°
2026-05-06 16:17 43.72368 7.56807 33821 ft 508 kts 56°
2026-05-06 16:18 43.76461 7.64780 33817 ft 508 kts 56°
2026-05-06 16:18 43.80523 7.72776 33824 ft 507 kts 56°
2026-05-06 16:19 43.84585 7.80764 33815 ft 507 kts 56°
2026-05-06 16:19 43.88671 7.88745 33815 ft 507 kts 56°
2026-05-06 16:20 43.92736 7.96708 33826 ft 505 kts 56°
2026-05-06 16:20 43.96781 8.04664 33826 ft 505 kts 56°
2026-05-06 16:21 44.00142 8.11296 33810 ft 505 kts 56°
2026-05-06 16:21 44.04828 8.20618 33816 ft 505 kts 59°
2026-05-06 16:22 44.07865 8.29333 33845 ft 501 kts 72°
2026-05-06 16:22 44.09958 8.36925 33826 ft 502 kts 72°
2026-05-06 16:23 44.11350 8.41951 33831 ft 503 kts 72°
2026-05-06 16:23 44.13934 8.51026 33830 ft 505 kts 71°
2026-05-06 16:24 44.16548 8.60127 33848 ft 506 kts 72°
2026-05-06 16:24 44.17483 8.64826 33427 ft 501 kts 90°
2026-05-06 16:24 44.17403 8.69578 32933 ft 481 kts 108°
2026-05-06 16:25 44.16483 8.73948 32417 ft 461 kts 122°
2026-05-06 16:25 44.15009 8.77823 31891 ft 445 kts 134°
2026-05-06 16:25 44.13072 8.81050 31378 ft 425 kts 147°
2026-05-06 16:25 44.11077 8.84112 30929 ft 438 kts 131°
2026-05-06 16:26 44.09894 8.88114 30485 ft 459 kts 108°
2026-05-06 16:26 44.09785 8.92601 30067 ft 473 kts 86°
2026-05-06 16:26 44.10779 8.96992 29441 ft 482 kts 65°
2026-05-06 16:26 44.12749 9.00787 28749 ft 485 kts 46°
2026-05-06 16:27 44.15115 9.04010 28273 ft 480 kts 41°
2026-05-06 16:27 44.17537 9.07176 27806 ft 476 kts 44°
2026-05-06 16:27 44.19703 9.10630 27390 ft 470 kts 54°
2026-05-06 16:27 44.21415 9.14467 26984 ft 463 kts 65°
2026-05-06 16:28 44.22727 9.18541 26545 ft 457 kts 72°
2026-05-06 16:28 44.23784 9.22700 26103 ft 452 kts 75°
2026-05-06 16:28 44.24712 9.26816 25687 ft 448 kts 76°
2026-05-06 16:28 44.25621 9.30958 25263 ft 444 kts 76°
2026-05-06 16:29 44.26536 9.35058 24847 ft 441 kts 75°
2026-05-06 16:29 44.27465 9.39121 24410 ft 438 kts 75°
2026-05-06 16:29 44.28402 9.43149 24016 ft 435 kts 75°
2026-05-06 16:29 44.29341 9.47156 23597 ft 433 kts 75°
2026-05-06 16:30 44.30275 9.51137 23127 ft 430 kts 74°
2026-05-06 16:30 44.30891 9.53770 22787 ft 428 kts 74°
2026-05-06 16:30 44.32070 9.59032 22231 ft 420 kts 79°
2026-05-06 16:30 44.32549 9.62970 21813 ft 413 kts 88°
2026-05-06 16:31 44.32816 9.66942 21408 ft 409 kts 89°
2026-05-06 16:31 44.33053 9.70894 20986 ft 406 kts 89°
2026-05-06 16:31 44.33285 9.74810 20568 ft 403 kts 88°
2026-05-06 16:31 44.33522 9.78700 20180 ft 399 kts 89°
2026-05-06 16:32 44.33764 9.82553 19782 ft 396 kts 88°
2026-05-06 16:32 44.34009 9.86383 19388 ft 394 kts 88°
2026-05-06 16:32 44.34255 9.90177 18990 ft 391 kts 88°
2026-05-06 16:32 44.34500 9.93955 18607 ft 389 kts 88°
2026-05-06 16:33 44.34740 9.97656 18218 ft 387 kts 88°
2026-05-06 16:33 44.34981 10.01393 17775 ft 385 kts 88°
2026-05-06 16:33 44.35221 10.05116 17348 ft 383 kts 88°
2026-05-06 16:34 44.35689 10.12472 16533 ft 377 kts 88°
2026-05-06 16:34 44.35920 10.16113 16154 ft 374 kts 88°
2026-05-06 16:34 44.36147 10.19715 15760 ft 371 kts 87°
2026-05-06 16:34 44.36371 10.23289 15390 ft 368 kts 88°
2026-05-06 16:35 44.36591 10.26836 15001 ft 365 kts 88°
2026-05-06 16:35 44.36810 10.30361 14628 ft 363 kts 87°
2026-05-06 16:35 44.37027 10.33870 14244 ft 361 kts 88°
2026-05-06 16:35 44.37238 10.37313 13878 ft 359 kts 87°
2026-05-06 16:36 44.37450 10.40786 13477 ft 357 kts 87°
2026-05-06 16:36 44.37659 10.44240 13056 ft 354 kts 87°
2026-05-06 16:36 44.37867 10.47661 12664 ft 351 kts 87°
2026-05-06 16:36 44.38071 10.51050 12296 ft 349 kts 87°
2026-05-06 16:37 44.38273 10.54423 11899 ft 347 kts 88°
2026-05-06 16:37 44.38477 10.57769 11523 ft 343 kts 87°
2026-05-06 16:37 44.38684 10.61088 11175 ft 340 kts 87°
2026-05-06 16:37 44.38887 10.64338 10821 ft 338 kts 87°
2026-05-06 16:38 44.39090 10.67616 10434 ft 337 kts 87°
2026-05-06 16:38 44.39288 10.70839 10269 ft 327 kts 87°
2026-05-06 16:38 44.39483 10.73970 10116 ft 319 kts 87°
2026-05-06 16:38 44.39678 10.77018 9974 ft 310 kts 87°
2026-05-06 16:39 44.39867 10.79985 9775 ft 305 kts 87°
2026-05-06 16:39 44.40053 10.82935 9445 ft 303 kts 88°
2026-05-06 16:39 44.40251 10.85852 9143 ft 300 kts 83°
2026-05-06 16:39 44.41001 10.88559 8826 ft 301 kts 54°
2026-05-06 16:40 44.42392 10.90464 8536 ft 297 kts 31°
2026-05-06 16:40 44.44223 10.91767 8233 ft 294 kts 21°
2026-05-06 16:40 44.46090 10.92919 7902 ft 293 kts 21°
2026-05-06 16:40 44.47951 10.94086 7579 ft 293 kts 22°
2026-05-06 16:41 44.49813 10.95256 7258 ft 293 kts 18°
2026-05-06 16:41 44.51790 10.95684 6920 ft 286 kts 351°
2026-05-06 16:41 44.53638 10.94862 6623 ft 275 kts 324°
2026-05-06 16:41 44.55058 10.93148 6337 ft 266 kts 303°
2026-05-06 16:42 44.56151 10.91072 5955 ft 270 kts 315°
2026-05-06 16:42 44.57838 10.90019 5696 ft 269 kts 352°
2026-05-06 16:42 44.59640 10.90547 5371 ft 268 kts 31°
2026-05-06 16:42 44.61006 10.92242 5159 ft 258 kts 38°
2026-05-06 16:43 44.62505 10.93510 4874 ft 251 kts 27°
2026-05-06 16:43 44.63779 10.95099 4570 ft 245 kts 63°
2026-05-06 16:43 44.64102 10.97322 4364 ft 227 kts 101°
2026-05-06 16:43 44.63727 10.99395 4147 ft 211 kts 110°
2026-05-06 16:44 44.63287 11.01231 4099 ft 192 kts 112°
2026-05-06 16:44 44.62818 11.02927 3886 ft 181 kts 117°
2026-05-06 16:44 44.62291 11.04517 3648 ft 177 kts 119°
2026-05-06 16:44 44.61743 11.06068 3416 ft 178 kts 120°
2026-05-06 16:45 44.61184 11.07621 3174 ft 177 kts 120°
2026-05-06 16:45 44.60641 11.09130 2953 ft 171 kts 119°
2026-05-06 16:45 44.60099 11.10632 2725 ft 172 kts 118°
2026-05-06 16:45 44.59581 11.12073 2486 ft 160 kts 118°
2026-05-06 16:46 44.59097 11.13414 2282 ft 151 kts 118°
2026-05-06 16:46 44.58630 11.14711 2095 ft 150 kts 117°
2026-05-06 16:46 44.58156 11.16027 1891 ft 151 kts 117°
2026-05-06 16:46 44.57684 11.17339 1686 ft 150 kts 117°
2026-05-06 16:47 44.57214 11.18644 1481 ft 149 kts 116°
2026-05-06 16:47 44.56746 11.19945 1285 ft 150 kts 117°
2026-05-06 16:47 44.56277 11.21249 1095 ft 149 kts 117°
2026-05-06 16:47 44.55813 11.22542 919 ft 148 kts 117°
2026-05-06 16:48 44.55355 11.23851 724 ft 151 kts 117°
2026-05-06 16:48 44.54896 11.25163 581 ft 150 kts 120°
2026-05-06 16:48 44.54409 11.26475 356 ft 152 kts 118°
2026-05-06 16:48 44.53925 11.27795 152 ft 152 kts 118°
2026-05-06 16:49 44.53491 11.29012 123 ft 125 kts 116°
2026-05-06 16:49 44.53234 11.29728 126 ft 36 kts 118°
2026-05-06 16:49 44.53130 11.29943 124 ft 15 kts 171°
2026-05-06 16:49 44.53068 11.29877 126 ft 14 kts 239°
2026-05-06 16:50 44.53048 11.29831 124 ft 0 kts 237°
2026-05-06 16:51 44.53026 11.29790 126 ft 12 kts 232°
2026-05-06 16:51 44.52992 11.29735 126 ft 10 kts 252°
2026-05-06 16:52 44.53043 11.29572 124 ft 25 kts 296°
2026-05-06 16:52 44.53079 11.29462 123 ft 4 kts 268°
2026-05-06 16:52 44.53052 11.29442 123 ft 9 kts 204°
2026-05-06 16:52 44.53036 11.29432 126 ft 0 kts 205°